MEARES Weather Reports


time (UTC)temp
F
wind
direction
speed
knots
gust
knots
rain 1hr
in
rain 24hr
in
rain mn
in
humidity
%
barometer
mb
20211017144513 53 46 0.9 5.2 0.01 0.24 0.13 46
20211017144013 53 29 0.0 2.6 0.01 0.24 0.13 44
20211017143513 53 0 0.0 0.0 0.01 0.24 0.13 43
20211017143013 53 0 0.0 0.0 0.01 0.24 0.13 39
20211017142513 53 0 0.0 0.0 0.01 0.24 0.13 39
20211017142013 53 0 0.0 0.0 0.00 0.24 0.13 33
20211017141513 53 0 0.0 0.0 0.00 0.24 0.12 51
20211017141013 53 0 0.0 0.0 0.00 0.24 0.12 29
20211017140514 53 0 0.0 0.0 0.00 0.24 0.12 32
20211017140013 53 0 0.0 0.0 0.01 0.24 0.12 35
20211017135536 53 0 0.0 0.0 0.01 0.24 0.12 32
20211017135013 54 0 0.0 0.0 0.01 0.24 0.12 31
20211017134513 54 0 0.0 3.5 0.01 0.24 0.12 32
20211017134013 53 350 0.0 3.5 0.01 0.24 0.12 34
20211017133513 54 320 0.0 3.5 0.01 0.24 0.12 34
20211017133013 54 9 0.0 3.5 0.01 0.24 0.12 34
20211017132514 54 357 0.0 3.5 0.01 0.24 0.12 34
20211017132013 53 21 0.0 3.5 0.01 0.24 0.12 35
20211017131513 53 347 0.9 4.3 0.01 0.24 0.12 35
20211017131013 53 9 1.7 4.3 0.01 0.24 0.12 34
20211017130513 53 25 0.9 4.3 0.01 0.24 0.12 34
20211017130013 54 347 1.7 6.1 0.00 0.24 0.12 32
20211017125513 53 347 3.5 6.1 0.00 0.24 0.11 25
20211017125013 54 12 2.6 6.1 0.00 0.24 0.11 32
20211017124513 54 357 0.9 5.2 0.00 0.24 0.11 31
20211017124013 54 22 0.9 7.8 0.00 0.24 0.11 31
20211017123513 54 7 2.6 7.8 0.00 0.24 0.11 31
20211017123013 54 32 2.6 7.8 0.00 0.24 0.11 25
20211017122515 54 357 1.7 7.0 0.00 0.24 0.11 29
20211017122013 54 26 1.7 7.0 0.01 0.25 0.11 26
20211017121513 54 22 2.6 7.0 0.01 0.25 0.11 23
20211017121013 54 357 2.6 6.1 0.01 0.25 0.11 27
20211017120513 54 23 1.7 6.1 0.01 0.25 0.11 23
20211017120013 54 19 0.9 6.1 0.01 0.25 0.11 28
20211017115513 54 8 3.5 7.0 0.01 0.25 0.11 25
20211017115013 54 22 1.7 7.0 0.01 0.25 0.11 26
20211017114513 54 22 2.6 7.0 0.01 0.25 0.11 28
20211017114013 54 26 1.7 6.1 0.01 0.25 0.11 28
20211017113513 54 15 2.6 6.1 0.01 0.25 0.11 25
20211017113014 54 2 1.7 6.1 0.01 0.25 0.11 25
20211017112515 54 348 2.6 6.1 0.01 0.25 0.11 29
20211017112013 54 8 0.9 5.2 0.00 0.25 0.10 29
20211017111513 54 15 1.7 5.2 0.00 0.25 0.10 30
20211017111013 54 22 0.0 6.1 0.01 0.25 0.10 30
20211017110513 54 26 1.7 6.1 0.01 0.25 0.10 23
20211017110013 54 26 3.5 6.1 0.01 0.25 0.10 21
20211017105513 54 2 0.9 6.1 0.01 0.25 0.10 25
20211017105013 54 12 1.7 7.0 0.01 0.25 0.10 24
20211017104513 54 8 2.6 7.0 0.01 0.25 0.10 24
20211017104013 54 343 1.7 7.0 0.01 0.25 0.10 24
20211017103513 54 344 0.9 7.0 0.01 0.25 0.10 32
20211017103013 54 357 1.7 7.0 0.01 0.25 0.10 31
20211017102513 54 338 0.9 5.2 0.01 0.25 0.10 31
20211017102013 54 26 0.9 5.2 0.01 0.25 0.10 31
20211017101513 54 313 0.0 5.2 0.01 0.25 0.10 32
20211017101013 54 2 0.9 5.2 0.00 0.25 0.09 32
20211017100513 54 15 0.0 5.2 0.00 0.25 0.09 32
20211017100013 54 348 0.0 5.2 0.00 0.25 0.09 32
20211017095513 54 44 0.0 5.2 0.00 0.25 0.09 32
20211017094513 54 327 0.9 4.3 0.00 0.25 0.09 32
20211017094013 54 303 0.0 4.3 0.01 0.25 0.09 32
20211017093513 54 9 0.9 6.1 0.01 0.25 0.09 31
20211017093015 54 32 0.9 6.1 0.01 0.25 0.09 31
20211017092517 54 2 0.9 6.1 0.01 0.25 0.09 32
20211017092013 54 9 0.9 6.1 0.01 0.25 0.09 29
20211017091513 55 4 2.6 6.1 0.01 0.25 0.09 26
20211017091013 55 0 1.7 6.1 0.01 0.25 0.09 29
20211017090513 55 312 0.0 7.0 0.01 0.25 0.09 29
20211017090014 55 357 1.7 7.0 0.01 0.25 0.09 29
20211017085513 55 16 3.5 7.0 0.01 0.25 0.09 21
20211017085013 55 351 2.6 7.0 0.01 0.25 0.09 21
20211017084513 55 25 3.5 7.0 0.01 0.25 0.09 21
20211017084013 55 331 0.9 7.0 0.01 0.25 0.08 22
20211017083514 55 29 1.7 7.0 0.01 0.25 0.08 25
20211017083013 55 351 1.7 7.8 0.01 0.25 0.08 21
20211017082514 55 11 2.6 7.8 0.01 0.25 0.08 23
20211017082013 55 47 3.5 7.8 0.01 0.25 0.08 19
20211017081515 55 357 2.6 6.1 0.01 0.25 0.08 25
20211017081013 55 19 1.7 6.1 0.01 0.25 0.08 23
20211017080513 55 357 0.9 7.0 0.01 0.25 0.08 22
20211017080013 55 21 2.6 7.0 0.01 0.25 0.08 21
20211017075513 55 354 0.9 7.0 0.01 0.25 0.08 28
20211017075013 55 9 1.7 6.1 0.01 0.25 0.08 23
20211017074513 55 23 0.9 6.1 0.01 0.25 0.08 21
20211017074013 55 18 2.6 6.1 0.00 0.25 0.08 22
20211017073513 55 357 2.6 5.2 0.00 0.25 0.07 23
20211017073013 55 22 0.9 5.2 0.00 0.25 0.07 20
20211017072513 55 352 0.9 6.1 0.00 0.25 0.07 27
20211017072013 55 32 0.9 6.1 0.00 0.26 0.07 28
20211017071513 55 4 0.0 6.1 0.00 0.26 0.07 28
20211017071013 55 26 1.7 7.0 0.01 0.26 0.07 26
20211017070513 55 2 0.9 7.0 0.01 0.26 0.07 23
20211017070013 55 357 1.7 7.0 0.01 0.26 0.07 23
20211017065513 55 22 2.6 7.0 0.01 0.26 0.07 22
20211017065013 55 16 2.6 6.1 0.01 0.26 0.07 28
20211017064513 55 350 0.9 5.2 0.01 0.26 0.07 27
20211017064013 55 29 1.7 5.2 0.01 0.26 0.07 28
20211017063513 55 4 1.7 5.2 0.01 0.26 0.07 26
20211017063014 55 2 0.9 4.3 0.01 0.26 0.07 28
20211017062016 55 348 0.9 7.0 0.01 0.27 0.07 25
20211017061513 55 2 1.7 7.0 0.01 0.27 0.07 22
20211017061013 55 26 1.7 6.1 0.01 0.27 0.07 22
20211017060513 56 1 2.6 6.1 0.01 0.27 0.06 19
20211017060013 55 355 1.7 5.2 0.01 0.27 0.06 23
20211017055513 55 2 1.7 7.8 0.01 0.27 0.06 17
20211017055013 56 18 2.6 7.8 0.01 0.27 0.06 17
20211017054513 55 15 2.6 7.8 0.01 0.27 0.06 17
20211017054013 55 28 3.5 7.0 0.01 0.27 0.06 20
20211017053513 55 1 1.7 7.0 0.01 0.27 0.06 22
20211017053013 55 22 2.6 7.0 0.01 0.27 0.06 21
20211017052513 55 43 0.9 7.0 0.01 0.27 0.06 21
20211017052013 55 16 2.6 7.0 0.01 0.27 0.06 22
20211017051513 55 29 1.7 7.0 0.01 0.27 0.06 26
20211017051013 55 357 1.7 6.1 0.00 0.27 0.06 21
20211017050513 55 23 2.6 6.1 0.00 0.27 0.05 22
20211017050013 55 4 2.6 6.1 0.00 0.27 0.05 21
20211017045513 55 357 1.7 7.8 0.00 0.27 0.05 22
20211017045013 55 347 2.6 7.8 0.01 0.27 0.05 20
20211017044513 55 345 3.5 7.8 0.01 0.27 0.05 21
20211017044013 55 357 3.5 7.0 0.01 0.27 0.05 21
20211017043513 56 357 1.7 7.0 0.01 0.27 0.05 21
20211017043013 56 350 3.5 7.0 0.01 0.27 0.05 21
20211017042514 56 357 0.9 7.0 0.01 0.27 0.05 21
20211017042013 56 4 1.7 7.0 0.01 0.27 0.05 24
20211017041513 56 7 2.6 7.8 0.01 0.27 0.05 24
20211017041013 56 357 3.5 7.8 0.01 0.27 0.05 24
20211017040513 56 1 3.5 7.8 0.01 0.27 0.05 22
20211017040013 56 21 2.6 7.8 0.02 0.27 0.05 24
20211017035513 56 19 2.6 7.8 0.02 0.27 0.05 20
20211017035013 56 35 2.6 7.0 0.01 0.27 0.04 20
20211017034513 56 7 2.6 7.8 0.01 0.27 0.04 20
20211017033513 56 15 3.5 7.8 0.01 0.27 0.04 21
20211017033013 56 330 3.5 7.0 0.01 0.27 0.04 24
20211017032513 56 26 2.6 7.0 0.01 0.27 0.04 24
20211017032013 56 12 2.6 7.0 0.01 0.28 0.04 20
20211017031513 56 12 2.6 7.0 0.01 0.28 0.04 19
20211017031013 56 11 2.6 7.0 0.01 0.28 0.04 20
20211017030514 56 1 1.7 8.7 0.01 0.28 0.04 19
20211017030013 56 352 2.6 8.7 0.00 0.28 0.04 18
20211017025513 56 15 2.6 8.7 0.00 0.28 0.03 21
20211017025013 56 4 2.6 7.8 0.00 0.28 0.03 25
20211017024515 56 39 2.6 7.8 0.00 0.28 0.03 25
20211017024015 56 12 3.5 7.8 0.01 0.28 0.03 22
20211017023513 56 36 4.3 8.7 0.01 0.28 0.03 23
20211017023013 56 30 2.6 8.7 0.01 0.28 0.03 22
20211017022513 56 9 2.6 8.7 0.01 0.28 0.03 23
20211017022013 56 16 3.5 9.6 0.01 0.29 0.03 25
20211017021513 55 29 4.3 9.6 0.01 0.29 0.03 22
20211017021013 55 11 4.3 9.6 0.01 0.29 0.03 23
20211017020513 55 9 3.5 8.7 0.01 0.29 0.03 23
20211017020013 56 1 5.2 9.6 0.02 0.29 0.03 20
20211017015513 56 11 3.5 9.6 0.02 0.29 0.03 19
20211017014513 56 15 5.2 9.6 0.02 0.29 0.03 22
20211017014013 56 9 3.5 9.6 0.01 0.29 0.03 21
20211017013513 56 340 3.5 9.6 0.01 0.29 0.02 18
20211017013013 57 11 4.3 8.7 0.01 0.29 0.02 18
20211017012514 57 33 5.2 8.7 0.01 0.29 0.02 20
20211017012013 57 357 3.5 8.7 0.01 0.30 0.02 20
20211017011512 57 5 3.5 10.4 0.01 0.30 0.02 19
20211017011013 57 11 3.5 10.4 0.01 0.30 0.02 18
20211017010513 57 357 5.2 10.4 0.01 0.30 0.02 18
20211017010013 57 5 5.2 11.3 0.00 0.30 0.02 18
20211017005513 57 36 3.5 11.3 0.00 0.30 0.01 18
20211017005013 57 4 4.3 11.3 0.01 0.30 0.01 20
20211017004513 58 19 5.2 10.4 0.01 0.30 0.01 20
20211017004013 58 54 5.2 9.6 0.01 0.30 0.01 20
20211017003513 58 35 3.5 8.7 0.01 0.30 0.01 18
20211017003013 58 22 5.2 8.7 0.01 0.30 0.01 18
20211017002512 59 14 2.6 7.8 0.01 0.30 0.01 15
20211017002015 59 29 3.5 7.0 0.01 0.31 0.01 16
20211017001512 59 29 2.6 6.1 0.01 0.31 0.01 17
20211017001013 59 15 2.6 6.1 0.02 0.31 0.01 15
20211017000513 59 357 0.9 5.2 0.02 0.31 0.01 16
20211017000012 59 2 1.7 5.2 0.02 0.31 0.01 16
20211016235512 59 21 0.0 5.2 0.02 0.31 0.01 17
20211016235013 59 1 1.7 5.2 0.01 0.31 0.01 12
20211016234512 59 357 0.9 5.2 0.01 0.31 0.00 18
20211016234012 59 357 0.9 5.2 0.01 0.31 0.00 14
20211016233013 59 338 2.6 7.0 0.01 0.31 0.00 14
20211016232513 59 1 1.7 7.0 0.01 0.31 0.00 15
20211016232012 59 25 1.7 7.0 0.01 0.32 0.00 15
20211016231512 59 21 2.6 7.0 0.01 0.32 0.31 13
20211016231013 59 26 2.6 6.1 0.01 0.32 0.31 15
20211016230513 59 7 2.6 7.8 0.01 0.32 0.30 13
20211016230012 59 348 1.7 7.8 0.01 0.32 0.30 16
20211016225513 59 15 1.7 7.8 0.01 0.32 0.30 14
20211016225012 59 11 2.6 9.6 0.01 0.32 0.30 14
20211016224512 59 22 1.7 9.6 0.01 0.32 0.30 16
20211016224012 59 2 2.6 9.6 0.01 0.32 0.30 15
20211016223512 60 11 3.5 10.4 0.01 0.32 0.30 15
20211016223013 60 46 2.6 10.4 0.02 0.32 0.30 16
20211016222512 60 23 1.7 10.4 0.02 0.32 0.30 14
20211016222012 60 16 3.5 9.6 0.02 0.33 0.30 14
20211016221512 60 4 3.5 8.7 0.02 0.33 0.30 14
20211016221012 61 26 3.5 7.8 0.01 0.33 0.30 12
20211016220512 60 26 2.6 7.0 0.01 0.33 0.29 12
20211016220012 60 345 0.9 7.0 0.01 0.33 0.29 12
20211016215513 60 35 1.7 7.0 0.01 0.33 0.29 12
20211016214012 60 21 1.7 7.8 0.01 0.33 0.29 13
20211016213512 60 12 2.6 9.6 0.01 0.33 0.29 15
20211016213012 60 352 0.9 9.6 0.01 0.33 0.28 15
20211016212512 60 5 3.5 9.6 0.01 0.33 0.28 14
20211016212012 60 350 2.6 7.8 0.01 0.35 0.28 13
20211016211512 60 331 0.9 8.7 0.01 0.35 0.28 17
20211016211014 60 337 1.7 8.7 0.01 0.35 0.28 16
20211016210513 60 39 2.6 8.7 0.01 0.35 0.28 14
20211016210013 60 336 0.0 7.8 0.01 0.35 0.28 13
20211016205512 60 29 2.6 7.8 0.01 0.35 0.28 11
20211016205012 60 357 2.6 7.8 0.02 0.35 0.28 14
20211016204512 60 14 1.7 7.8 0.02 0.35 0.28 10
20211016204012 60 0 3.5 10.4 0.02 0.35 0.28 12
20211016203512 60 22 4.3 10.4 0.02 0.35 0.28 10
20211016203012 60 5 4.3 10.4 0.01 0.35 0.27 12
20211016202512 60 26 3.5 9.6 0.01 0.35 0.27 11
20211016202012 60 9 2.6 8.7 0.01 0.38 0.27 10
20211016201513 60 36 4.3 8.7 0.01 0.38 0.27 14
20211016201012 60 357 3.5 7.8 0.01 0.38 0.27 11
20211016200512 60 351 2.6 7.8 0.01 0.38 0.27 9
20211016200013 60 16 3.5 9.6 0.02 0.38 0.27 13
20211016195513 60 344 2.6 9.6 0.02 0.38 0.27 12
20211016195012 60 333 3.5 9.6 0.01 0.38 0.26 11
20211016194512 60 8 3.5 7.0 0.01 0.38 0.26 13
20211016194012 60 16 0.9 7.0 0.01 0.38 0.26 10
20211016193512 60 348 0.9 7.8 0.01 0.38 0.26 14
20211016193012 60 39 0.9 7.8 0.01 0.38 0.26 12
20211016192512 59 310 0.0 7.8 0.01 0.38 0.26 16
20211016192013 59 337 0.9 7.0 0.02 0.39 0.26 16
20211016191512 59 341 0.9 6.1 0.02 0.39 0.26 16
20211016191012 59 338 0.0 7.0 0.02 0.39 0.26 15
20211016190512 59 326 3.5 7.0 0.02 0.39 0.26 17
20211016190013 58 333 1.7 7.0 0.01 0.39 0.26 16
20211016185512 58 333 0.9 6.1 0.01 0.39 0.25 17
20211016185012 58 357 0.9 6.1 0.01 0.39 0.25 18
20211016184512 58 30 0.0 5.2 0.01 0.39 0.25 18
20211016184012 58 357 0.0 5.2 0.01 0.39 0.25 17
20211016183512 58 352 0.0 4.3 0.01 0.39 0.25 17
20211016183012 57 330 0.0 4.3 0.01 0.39 0.25 18
20211016182512 57 330 0.0 6.1 0.01 0.39 0.25 17
20211016182012 57 355 0.0 6.1 0.01 0.41 0.25 19
20211016181512 57 21 0.9 6.1 0.01 0.41 0.24 17
20211016181012 57 313 0.0 5.2 0.01 0.41 0.24 17
20211016180512 57 345 1.7 5.2 0.01 0.41 0.24 18
20211016180012 57 21 0.0 5.2 0.01 0.41 0.24 18
20211016175512 56 323 0.0 5.2 0.01 0.41 0.24 18
20211016175012 56 2 0.9 5.2 0.01 0.41 0.24 18
20211016174512 56 18 0.0 7.0 0.01 0.41 0.24 18
20211016174012 56 340 0.0 7.0 0.01 0.41 0.24 17
20211016173513 56 312 1.7 7.0 0.01 0.41 0.24 17
20211016173012 56 316 2.6 7.0 0.02 0.41 0.24 19
20211016172512 56 295 2.6 7.8 0.02 0.41 0.24 20
20211016172012 56 323 2.6 7.8 0.01 0.41 0.24 19
20211016171512 56 320 4.3 7.8 0.01 0.41 0.23 19
20211016171012 55 324 1.7 7.0 0.01 0.41 0.23 17
20211016170512 55 324 3.5 7.0 0.01 0.41 0.23 19
20211016170012 55 281 4.3 7.0 0.01 0.41 0.23 18
20211016165012 55 319 3.5 7.0 0.01 0.41 0.23 20
20211016164512 55 310 2.6 7.0 0.01 0.41 0.23 21
20211016164012 55 341 2.6 6.1 0.02 0.41 0.23 19
20211016163512 55 334 0.9 6.1 0.02 0.41 0.23 17
20211016163012 55 324 0.9 7.0 0.01 0.41 0.22 20
20211016162512 55 312 1.7 7.0 0.01 0.41 0.22 19
20211016162012 54 316 2.6 7.0 0.01 0.41 0.22 20
20211016161512 54 322 1.7 7.0 0.01 0.41 0.22 22
20211016161012 54 299 0.9 7.0 0.01 0.41 0.22 21
20211016160513 54 323 2.6 7.0 0.01 0.41 0.22 20
20211016160012 54 322 2.6 8.7 0.01 0.41 0.22 19
20211016155512 54 350 1.7 8.7 0.01 0.41 0.22 22
20211016155012 54 16 4.3 8.7 0.02 0.41 0.22 15
20211016154512 54 329 2.6 7.8 0.02 0.41 0.22 22
20211016154012 54 316 2.6 7.8 0.01 0.41 0.22 19
20211016153512 54 333 3.5 7.8 0.01 0.41 0.21 18
20211016153012 54 327 3.5 7.8 0.01 0.41 0.21 19
20211016152512 54 313 2.6 7.0 0.01 0.41 0.21 19
20211016152012 54 329 2.6 7.0 0.01 0.42 0.21 19
20211016151512 54 333 1.7 6.1 0.01 0.42 0.21 19
20211016150013 54 324 2.6 7.0 0.01 0.42 0.21 20
20211016145512 54 305 2.6 7.8 0.01 0.42 0.21 20
20211016145012 54 312 3.5 7.8 0.01 0.42 0.20 21